Date,TemperatureHighF,TemperatureAvgF,TemperatureLowF,DewpointHighF,DewpointAvgF,DewpointLowF,HumidityHigh,HumidityAvg,HumidityLow,PressureMaxIn,PressureMinIn,WindSpeedMaxMPH,WindSpeedAvgMPH,GustSpeedMaxMPH,PrecipitationSumIn
2013-11-1,55.8,47.4,41.7,48.9,44.7,41.5,100,91,68,29.47,29.21,3,0,10,0.00
2013-11-2,52.7,43.6,34.3,42.1,37.7,32.3,100,82,53,29.84,29.47,5,0,14,0.00
2013-11-3,55.6,42.4,29.1,44.3,34.7,28.9,100,76,51,29.97,29.82,2,0,8,0.00
2013-11-4,59.0,51.6,45.5,45.9,41.1,35.5,77,68,54,29.88,29.76,4,1,11,0.00
2013-11-5,55.6,53.3,51.3,54.9,50.9,45.5,100,92,77,29.93,29.63,3,0,10,0.00
2013-11-6,57.4,46.4,34.2,57.1,44.7,30.7,100,94,83,29.90,29.52,4,0,11,0.00
2013-11-7,50.7,38.0,27.9,39.5,32.1,26.6,100,80,54,29.99,29.89,4,0,17,0.00
2013-11-8,77.0,42.0,27.0,68.9,32.6,26.7,100,71,48,30.01,29.66,4,0,10,0.00
2013-11-9,65.3,51.6,42.8,44.0,38.1,34.1,82,61,43,29.88,29.62,5,0,11,0.00
2013-11-10,48.2,40.9,32.9,34.9,31.4,28.0,83,69,54,30.09,29.88,4,0,8,0.00
2013-11-11,54.9,40.5,25.9,40.9,33.6,19.7,100,77,56,30.20,29.80,5,0,17,0.00
2013-11-12,33.8,25.4,19.6,21.2,17.9,14.5,83,73,57,30.41,30.20,6,0,15,0.00
2013-11-13,42.6,30.6,18.1,24.6,19.6,15.2,92,66,43,30.31,29.89,3,0,9,0.00
2013-11-14,52.7,40.1,28.6,28.5,24.3,19.9,70,55,36,29.89,29.65,3,0,9,0.00
2013-11-15,49.8,42.5,35.8,39.5,33.4,26.6,86,70,60,29.68,29.58,2,0,8,0.00
2013-11-16,59.2,53.8,42.3,58.7,51.7,38.4,100,93,82,29.59,29.26,5,1,11,0.00
2013-11-17,73.6,63.4,57.9,66.0,61.9,57.7,100,95,76,29.26,28.89,8,1,14,0.00
2013-11-18,44.2,37.3,31.6,29.1,27.9,26.0,80,69,54,29.96,29.85,2,0,5,0.00
2013-11-19,45.9,35.0,25.3,29.4,27.1,23.4,93,74,50,30.02,29.90,3,0,8,0.00
2013-11-20,44.8,37.6,30.2,40.8,33.0,26.9,100,84,61,29.91,29.69,4,0,14,0.00
2013-11-21,49.8,46.0,42.3,49.8,44.7,40.0,100,95,89,29.90,29.75,2,0,8,0.00
2013-11-22,43.3,36.3,25.7,43.3,33.4,23.0,100,89,75,30.19,29.89,6,1,14,0.00
2013-11-23,27.1,22.4,15.3,23.3,14.2,5.7,94,71,55,30.39,30.16,6,1,18,0.00
2013-11-24,29.8,19.4,9.0,14.1,9.2,5.4,87,66,40,30.42,30.06,2,0,6,0.00
2013-11-25,34.5,29.1,21.7,25.5,19.7,14.0,84,68,54,30.06,29.79,2,0,6,0.00
2013-11-26,37.6,27.7,18.1,29.0,19.0,7.4,86,70,54,29.89,29.73,8,0,19,0.00
2013-11-27,27.5,19.9,13.1,12.4,9.0,5.2,75,62,50,29.97,29.87,4,0,14,0.00
2013-11-28,39.4,28.0,18.1,21.8,16.7,10.8,75,63,48,30.16,29.84,2,0,9,0.00
2013-11-29,38.7,27.9,15.8,24.2,19.1,13.0,90,70,51,30.28,30.03,3,0,8,0.00
2013-11-30,51.8,38.9,29.1,35.4,29.6,24.2,87,70,49,30.03,29.73,2,0,6,0.00